星链-4168 (STARLINK-4168 )

导读

STARLINK-4168是美国太空探索技术公司SpaceX星链互联网卫星家族成员,2022年6月17日于美国发射升空,隶属于星链低轨互联网星座项目,旨在为全球提供高速低延迟卫星互联网服务,运行在近地轨道,承担全球偏远区域网络覆盖、补充通信网络基础设施的任务,是星链大规模组网进程中的一颗组网卫星。

Basic Information
目录编号:
52845
目录名称:
STARLINK-4168
国际标识:
2022-062R
轨道中心:
EARTH
卫星名称:
星链-4168
卫星全名:
星链-4168 (STARLINK-4168 )
卫星状态:
在轨 (已飞行1540 天)
发射日期:
2022-06-17 UTC
国别 :
美国 (US)
星等 :
--
Orbit Information
数据来源 国际轨道数据
星历时间: 2026-09-04T12:34:32+0800
11小时前
查看轨道信息
半长轴: 6848.858km
偏心率: 0.0001084
轨道倾角: 53.159°
近地点辐角 73.997°
升交点赤经 304.761°
平近点角 286.115°
近地点: 469.978km
远地点: 471.464km
周期: 94.013分钟
每日圈数: 15.317066
Detailed Information
固有亮度:
5
最大亮度:
2.5
卫星平台:
Starlink v1.5
覆盖范围:
全球
运营商:
太空探索技术公司
运营商所在国:
美国
制造商(研发单位):
太空探索技术公司
制造商所在国:
美国
使用方式:
暂无
Satellite Introduction
星链(Starlink)计划是由太空探索技术公司(SpaceX)提出的一个巨型低轨卫星互联网星座项目,计划在2019年至2024年间在太空搭建由约1.2万颗卫星组成的“星链”网络,其中1584颗将部署在地球上空550千米处的近地轨道,并从2020年开始工作。该卫星仍在工作。
2D Orbit Map
3D Orbit Map
Orbit Altitude Analysis Chart
Orbit Inclination Analysis Chart
Orbit Comprehensive Analysis Chart
View Comprehensive Chart
Conjunction Data List
Event ID Objects TCA Miss Dist (km) Collision Risk Probability Collision Risk Index (CRI) Action
CDM_260904-151905-284506-881821
2026-09-04T
15:19:27+0000
2.484 km
极远距离
1.743455E-6 低风险 0.4
CDM_260906-094705-284506-874921
2026-09-06T
09:47:47+0000
2.954 km
极远距离
1.362451E-6 低风险 0.38
CDM_260906-102905-284506-930621
2026-09-06T
10:29:01+0000
2.936 km
极远距离
8.424875E-7 极低风险 0.34